Time,TemperatureF,DewpointF,PressureIn,WindDirection,WindDirectionDegrees,WindSpeedMPH,WindSpeedGustMPH,Humidity,HourlyPrecipIn,Conditions,Clouds,dailyrainin,SoftwareType,DateUTC
2013-02-13 00:02:00,34.0,28.0,30.11,ESE,121,0.0,3.0,79,0.00,,,0.01,,2013-02-13 00:02:00,
2013-02-13 00:11:00,34.0,28.0,30.11,ESE,121,0.0,3.0,79,0.00,,,0.01,,2013-02-13 00:11:00,
2013-02-13 00:21:00,34.0,28.0,30.11,ESE,121,1.0,2.0,80,0.00,,,0.01,,2013-02-13 00:21:00,
2013-02-13 00:32:00,34.0,28.0,30.11,ESE,121,1.0,2.0,80,0.00,,,0.01,,2013-02-13 00:32:00,
2013-02-13 00:42:00,34.0,28.0,30.11,ESE,121,1.0,2.0,80,0.00,,,0.01,,2013-02-13 00:42:00,
2013-02-13 00:51:00,34.0,28.0,30.11,ESE,121,0.0,2.0,80,0.00,,,0.01,,2013-02-13 00:51:00,
2013-02-13 01:01:00,34.0,28.0,30.11,ESE,121,0.0,2.0,80,0.00,,,0.01,,2013-02-13 01:01:00,
2013-02-13 01:11:00,34.0,28.0,30.11,ESE,121,0.0,2.0,80,0.00,,,0.01,,2013-02-13 01:11:00,
2013-02-13 01:21:00,34.0,29.0,30.11,ESE,121,0.0,3.0,81,0.00,,,0.01,,2013-02-13 01:21:00,
2013-02-13 01:31:00,34.0,29.0,30.11,ESE,121,0.0,3.0,81,0.00,,,0.01,,2013-02-13 01:31:00,
2013-02-13 01:42:00,34.0,29.0,30.11,ESE,121,0.0,3.0,81,0.00,,,0.01,,2013-02-13 01:42:00,
2013-02-13 01:52:00,34.0,29.0,30.13,ESE,121,0.0,0.0,81,0.00,,,0.01,,2013-02-13 01:52:00,
2013-02-13 02:01:00,34.0,29.0,30.13,ESE,121,0.0,0.0,81,0.00,,,0.01,,2013-02-13 02:01:00,
2013-02-13 02:11:00,34.0,29.0,30.13,ESE,121,0.0,0.0,81,0.00,,,0.01,,2013-02-13 02:11:00,
2013-02-13 02:21:00,34.0,29.0,30.14,ESE,121,1.0,2.0,81,0.00,,,0.01,,2013-02-13 02:21:00,
2013-02-13 02:31:00,34.0,29.0,30.14,ESE,121,1.0,2.0,81,0.00,,,0.01,,2013-02-13 02:31:00,
2013-02-13 02:42:00,34.0,29.0,30.14,ESE,121,1.0,2.0,81,0.00,,,0.01,,2013-02-13 02:42:00,
2013-02-13 02:52:00,34.0,29.0,30.13,ESE,121,1.0,2.0,82,0.00,,,0.01,,2013-02-13 02:52:00,
2013-02-13 03:01:00,34.0,29.0,30.13,ESE,121,1.0,2.0,82,0.00,,,0.01,,2013-02-13 03:01:00,
2013-02-13 03:11:00,34.0,29.0,30.13,South,180,2.0,5.0,81,0.00,,,0.01,,2013-02-13 03:11:00,
2013-02-13 03:21:00,34.0,29.0,30.13,South,180,2.0,5.0,81,0.00,,,0.01,,2013-02-13 03:21:00,
2013-02-13 03:32:00,34.0,29.0,30.13,South,180,2.0,5.0,81,0.00,,,0.01,,2013-02-13 03:32:00,
2013-02-13 03:42:00,34.0,29.0,30.13,South,180,2.0,5.0,81,0.00,,,0.01,,2013-02-13 03:42:00,
2013-02-13 03:51:00,34.0,29.0,30.13,South,180,2.0,5.0,81,0.00,,,0.01,,2013-02-13 03:51:00,
2013-02-13 04:01:00,34.0,29.0,30.14,South,188,1.0,5.0,82,0.00,,,0.01,,2013-02-13 04:01:00,
2013-02-13 04:21:00,34.0,29.0,30.14,South,188,1.0,5.0,82,0.00,,,0.01,,2013-02-13 04:21:00,
2013-02-13 04:32:00,34.0,29.0,30.14,South,188,1.0,5.0,82,0.00,,,0.01,,2013-02-13 04:32:00,
2013-02-13 04:42:00,34.0,29.0,30.14,South,188,1.0,5.0,82,0.00,,,0.01,,2013-02-13 04:42:00,
2013-02-13 04:52:00,34.0,29.0,30.14,South,188,1.0,5.0,82,0.00,,,0.01,,2013-02-13 04:52:00,
2013-02-13 05:12:00,34.0,29.0,30.14,SSW,204,3.0,7.0,82,0.00,,,0.01,,2013-02-13 05:12:00,
2013-02-13 05:22:00,34.0,29.0,30.14,SSW,204,3.0,7.0,82,0.00,,,0.01,,2013-02-13 05:22:00,
2013-02-13 05:31:00,34.0,29.0,30.13,South,183,4.0,9.0,81,0.00,,,0.01,,2013-02-13 05:31:00,
2013-02-13 05:32:00,34.0,29.0,30.13,South,176,2.0,7.0,82,0.00,,,0.01,,2013-02-13 05:32:00,
2013-02-13 05:42:00,34.0,29.0,30.13,South,176,2.0,7.0,82,0.00,,,0.01,,2013-02-13 05:42:00,
2013-02-13 05:52:00,34.0,29.0,30.13,South,183,4.0,9.0,81,0.00,,,0.01,,2013-02-13 05:52:00,
2013-02-13 06:01:00,34.0,29.0,30.13,South,183,4.0,9.0,81,0.00,,,0.01,,2013-02-13 06:01:00,
2013-02-13 06:11:00,34.0,29.0,30.13,South,183,4.0,9.0,81,0.00,,,0.01,,2013-02-13 06:11:00,
2013-02-13 06:21:00,34.0,29.0,30.13,South,183,4.0,9.0,81,0.00,,,0.01,,2013-02-13 06:21:00,
2013-02-13 06:31:00,34.0,29.0,30.15,SW,229,2.0,7.0,82,0.00,,,0.01,,2013-02-13 06:31:00,
2013-02-13 06:42:00,34.0,29.0,30.15,SW,229,2.0,7.0,82,0.00,,,0.01,,2013-02-13 06:42:00,
2013-02-13 06:52:00,34.0,29.0,30.15,SW,229,2.0,7.0,82,0.00,,,0.01,,2013-02-13 06:52:00,
2013-02-13 07:02:00,34.0,29.0,30.15,SW,229,2.0,7.0,82,0.00,,,0.01,,2013-02-13 07:02:00,
2013-02-13 07:11:00,34.0,29.0,30.15,SW,229,2.0,7.0,82,0.00,,,0.01,,2013-02-13 07:11:00,
2013-02-13 07:21:00,34.0,29.0,30.15,SW,229,2.0,7.0,82,0.00,,,0.01,,2013-02-13 07:21:00,
2013-02-13 07:52:00,34.0,30.0,30.16,South,186,2.0,12.0,84,0.00,,,0.01,,2013-02-13 07:52:00,
2013-02-13 08:01:00,34.0,30.0,30.16,South,186,2.0,12.0,84,0.00,,,0.01,,2013-02-13 08:01:00,
2013-02-13 08:11:00,34.0,30.0,30.16,South,186,2.0,12.0,84,0.00,,,0.01,,2013-02-13 08:11:00,
2013-02-13 08:21:00,34.0,29.0,30.16,West,263,7.0,14.0,83,0.00,,,0.01,,2013-02-13 08:21:00,
2013-02-13 08:31:00,34.0,29.0,30.16,West,263,7.0,14.0,83,0.00,,,0.01,,2013-02-13 08:31:00,
2013-02-13 08:42:00,34.0,29.0,30.16,West,263,7.0,14.0,83,0.00,,,0.01,,2013-02-13 08:42:00,
2013-02-13 08:52:00,34.0,28.0,30.17,SW,223,6.0,12.0,80,0.00,,,0.01,,2013-02-13 08:52:00,
2013-02-13 09:01:00,34.0,28.0,30.17,SSW,207,7.0,16.0,79,0.00,,,0.01,,2013-02-13 09:01:00,
2013-02-13 09:11:00,34.0,28.0,30.17,SSW,207,7.0,16.0,79,0.00,,,0.01,,2013-02-13 09:11:00,
2013-02-13 09:21:00,35.0,29.0,30.18,South,188,5.0,15.0,78,0.00,,,0.01,,2013-02-13 09:21:00,
2013-02-13 09:31:00,35.0,28.0,30.18,WSW,249,9.0,13.0,76,0.00,,,0.01,,2013-02-13 09:31:00,
2013-02-13 09:41:00,35.0,27.0,30.18,South,169,3.0,15.0,72,0.00,,,0.01,,2013-02-13 09:41:00,
2013-02-13 09:52:00,35.0,27.0,30.18,South,169,3.0,15.0,72,0.00,,,0.01,,2013-02-13 09:52:00,
2013-02-13 10:01:00,35.0,25.0,30.17,SW,214,8.0,16.0,67,0.00,,,0.00,,2013-02-13 10:01:00,
2013-02-13 10:11:00,35.0,25.0,30.17,South,186,8.0,18.0,66,0.00,,,0.00,,2013-02-13 10:11:00,
2013-02-13 10:21:00,35.0,25.0,30.17,South,186,8.0,18.0,66,0.00,,,0.00,,2013-02-13 10:21:00,
2013-02-13 10:31:00,35.0,25.0,30.17,SW,221,9.0,18.0,66,0.00,,,0.00,,2013-02-13 10:31:00,
2013-02-13 10:41:00,35.0,26.0,30.18,SW,235,9.0,17.0,69,0.00,,,0.00,,2013-02-13 10:41:00,
2013-02-13 10:51:00,35.0,26.0,30.18,SW,235,9.0,17.0,69,0.00,,,0.00,,2013-02-13 10:51:00,
2013-02-13 11:01:00,35.0,26.0,30.18,SSW,194,10.0,18.0,69,0.00,,,0.00,,2013-02-13 11:01:00,
2013-02-13 11:11:00,35.0,26.0,30.18,SSW,194,10.0,18.0,69,0.00,,,0.00,,2013-02-13 11:11:00,
2013-02-13 11:22:00,35.0,26.0,30.18,WSW,242,7.0,13.0,70,0.00,,,0.00,,2013-02-13 11:22:00,
2013-02-13 11:31:00,35.0,26.0,30.18,WSW,242,7.0,13.0,70,0.00,,,0.00,,2013-02-13 11:31:00,
2013-02-13 11:41:00,36.0,28.0,30.18,SSE,159,7.0,13.0,71,0.00,,,0.00,,2013-02-13 11:41:00,
2013-02-13 11:52:00,36.0,28.0,30.18,SSE,159,7.0,13.0,71,0.00,,,0.00,,2013-02-13 11:52:00,
2013-02-13 12:02:00,36.0,28.0,30.18,SSE,159,7.0,13.0,71,0.00,,,0.00,,2013-02-13 12:02:00,
2013-02-13 12:11:00,36.0,28.0,30.17,WSW,242,8.0,15.0,71,0.00,,,0.00,,2013-02-13 12:11:00,
2013-02-13 12:21:00,36.0,28.0,30.17,WSW,242,8.0,15.0,71,0.00,,,0.00,,2013-02-13 12:21:00,
2013-02-13 12:31:00,36.0,28.0,30.17,WSW,242,8.0,15.0,71,0.00,,,0.00,,2013-02-13 12:31:00,
2013-02-13 12:42:00,36.0,28.0,30.17,WSW,242,8.0,15.0,71,0.00,,,0.00,,2013-02-13 12:42:00,
2013-02-13 12:51:00,37.0,28.0,30.16,SSW,197,6.0,18.0,71,0.00,,,0.00,,2013-02-13 12:51:00,
2013-02-13 12:52:00,36.0,28.0,30.17,WSW,242,8.0,15.0,71,0.00,,,0.00,,2013-02-13 12:52:00,
2013-02-13 13:02:00,37.0,28.0,30.16,SW,233,9.0,15.0,71,0.00,,,0.00,,2013-02-13 13:02:00,
2013-02-13 13:11:00,37.0,28.0,30.16,SW,233,9.0,15.0,71,0.00,,,0.00,,2013-02-13 13:11:00,
2013-02-13 13:21:00,37.0,28.0,30.16,SSW,197,6.0,18.0,71,0.00,,,0.00,,2013-02-13 13:21:00,
2013-02-13 13:31:00,37.0,28.0,30.16,SSW,197,6.0,18.0,71,0.00,,,0.00,,2013-02-13 13:31:00,
2013-02-13 13:41:00,37.0,28.0,30.16,SSW,197,6.0,18.0,71,0.00,,,0.00,,2013-02-13 13:41:00,
2013-02-13 14:01:00,37.0,29.0,30.14,West,275,9.0,16.0,73,0.00,,,0.00,,2013-02-13 14:01:00,
2013-02-13 14:11:00,37.0,29.0,30.14,West,275,9.0,16.0,73,0.00,,,0.00,,2013-02-13 14:11:00,
2013-02-13 14:21:00,37.0,29.0,30.14,WSW,256,9.0,15.0,73,0.00,,,0.00,,2013-02-13 14:21:00,
2013-02-13 14:31:00,37.0,29.0,30.14,WSW,239,10.0,16.0,74,0.00,,,0.00,,2013-02-13 14:31:00,
2013-02-13 14:41:00,37.0,30.0,30.15,SW,232,7.0,15.0,75,0.00,,,0.00,,2013-02-13 14:41:00,
2013-02-13 14:52:00,37.0,30.0,30.15,SW,232,7.0,15.0,75,0.00,,,0.00,,2013-02-13 14:52:00,
2013-02-13 15:01:00,37.0,30.0,30.15,SW,232,7.0,15.0,75,0.00,,,0.00,,2013-02-13 15:01:00,
2013-02-13 15:11:00,37.0,30.0,30.15,WSW,239,6.0,14.0,75,0.00,,,0.00,,2013-02-13 15:11:00,
2013-02-13 15:21:00,37.0,30.0,30.15,WSW,239,6.0,14.0,75,0.00,,,0.00,,2013-02-13 15:21:00,
2013-02-13 15:31:00,36.0,29.0,30.14,SW,233,7.0,16.0,76,0.00,,,0.00,,2013-02-13 15:31:00,
2013-02-13 15:42:00,36.0,29.0,30.14,SW,233,7.0,16.0,76,0.00,,,0.00,,2013-02-13 15:42:00,
2013-02-13 15:51:00,36.0,29.0,30.14,SW,233,7.0,16.0,76,0.00,,,0.00,,2013-02-13 15:51:00,
2013-02-13 16:01:00,36.0,29.0,30.14,SW,233,7.0,16.0,76,0.00,,,0.00,,2013-02-13 16:01:00,
2013-02-13 16:11:00,36.0,29.0,30.13,WSW,256,9.0,20.0,77,0.00,,,0.00,,2013-02-13 16:11:00,
2013-02-13 16:21:00,36.0,29.0,30.13,WSW,256,9.0,20.0,77,0.00,,,0.00,,2013-02-13 16:21:00,
2013-02-13 16:32:00,36.0,29.0,30.13,WSW,256,9.0,20.0,77,0.00,,,0.00,,2013-02-13 16:32:00,
2013-02-13 16:41:00,35.0,29.0,30.12,SW,235,6.0,16.0,78,0.00,,,0.00,,2013-02-13 16:41:00,
2013-02-13 16:42:00,36.0,29.0,30.13,WSW,256,9.0,20.0,77,0.00,,,0.00,,2013-02-13 16:42:00,
2013-02-13 16:52:00,36.0,30.0,30.12,SW,229,10.0,18.0,78,0.00,,,0.00,,2013-02-13 16:52:00,
2013-02-13 17:01:00,35.0,29.0,30.12,SW,235,6.0,16.0,78,0.00,,,0.00,,2013-02-13 17:01:00,
2013-02-13 17:11:00,35.0,29.0,30.12,SW,235,6.0,16.0,78,0.00,,,0.00,,2013-02-13 17:11:00,
2013-02-13 17:21:00,35.0,29.0,30.12,SW,235,6.0,16.0,78,0.00,,,0.00,,2013-02-13 17:21:00,
2013-02-13 17:31:00,35.0,29.0,30.12,SW,235,6.0,16.0,78,0.00,,,0.00,,2013-02-13 17:31:00,
2013-02-13 17:52:00,34.0,30.0,30.11,WSW,240,6.0,12.0,86,0.00,,,0.00,,2013-02-13 17:52:00,
2013-02-13 18:01:00,34.0,30.0,30.11,WSW,240,6.0,12.0,86,0.00,,,0.00,,2013-02-13 18:01:00,
2013-02-13 18:11:00,34.0,30.0,30.11,WSW,240,6.0,12.0,86,0.00,,,0.00,,2013-02-13 18:11:00,
2013-02-13 18:22:00,34.0,30.0,30.11,WSW,240,6.0,12.0,86,0.00,,,0.00,,2013-02-13 18:22:00,
2013-02-13 18:31:00,34.0,30.0,30.10,SW,232,6.0,13.0,86,0.00,,,0.00,,2013-02-13 18:31:00,
2013-02-13 18:41:00,34.0,30.0,30.09,SW,225,7.0,15.0,86,0.00,,,0.00,,2013-02-13 18:41:00,
2013-02-13 18:42:00,34.0,30.0,30.10,SW,232,6.0,13.0,86,0.00,,,0.00,,2013-02-13 18:42:00,
2013-02-13 18:52:00,34.0,30.0,30.09,West,275,7.0,16.0,86,0.00,,,0.00,,2013-02-13 18:52:00,
2013-02-13 19:01:00,34.0,30.0,30.09,SW,225,7.0,15.0,86,0.00,,,0.00,,2013-02-13 19:01:00,
2013-02-13 19:11:00,34.0,30.0,30.09,SW,225,7.0,15.0,86,0.00,,,0.00,,2013-02-13 19:11:00,
2013-02-13 19:21:00,34.0,30.0,30.09,SW,225,7.0,15.0,86,0.00,,,0.00,,2013-02-13 19:21:00,
2013-02-13 19:31:00,34.0,30.0,30.09,SW,225,7.0,15.0,86,0.00,,,0.00,,2013-02-13 19:31:00,
2013-02-13 19:52:00,35.0,32.0,30.08,SW,223,6.0,14.0,87,0.00,,,0.00,,2013-02-13 19:52:00,
2013-02-13 20:02:00,35.0,32.0,30.07,West,269,6.0,12.0,88,0.00,,,0.00,,2013-02-13 20:02:00,
2013-02-13 20:11:00,35.0,32.0,30.07,West,263,7.0,12.0,88,0.00,,,0.00,,2013-02-13 20:11:00,
2013-02-13 20:21:00,35.0,32.0,30.07,West,263,7.0,12.0,88,0.00,,,0.00,,2013-02-13 20:21:00,
2013-02-13 20:31:00,35.0,32.0,30.06,SW,230,7.0,12.0,89,0.00,,,0.00,,2013-02-13 20:31:00,
2013-02-13 20:41:00,35.0,32.0,30.06,SW,230,7.0,12.0,89,0.00,,,0.00,,2013-02-13 20:41:00,
2013-02-13 20:52:00,35.0,32.0,30.06,SW,230,7.0,12.0,89,0.00,,,0.00,,2013-02-13 20:52:00,
2013-02-13 21:01:00,36.0,33.0,30.05,SSW,202,8.0,14.0,89,0.00,,,0.00,,2013-02-13 21:01:00,
2013-02-13 21:11:00,36.0,33.0,30.05,SSW,202,8.0,14.0,89,0.00,,,0.00,,2013-02-13 21:11:00,
2013-02-13 21:21:00,36.0,33.0,30.05,SSW,202,8.0,14.0,89,0.00,,,0.00,,2013-02-13 21:21:00,
2013-02-13 21:31:00,36.0,33.0,30.05,SSW,202,8.0,14.0,89,0.00,,,0.00,,2013-02-13 21:31:00,
2013-02-13 21:42:00,37.0,35.0,30.04,West,262,6.0,18.0,91,0.00,,,0.00,,2013-02-13 21:42:00,
2013-02-13 21:52:00,37.0,35.0,30.04,West,262,6.0,18.0,91,0.00,,,0.00,,2013-02-13 21:52:00,
2013-02-13 22:01:00,37.0,35.0,30.02,SW,231,5.0,16.0,92,0.01,,,0.01,,2013-02-13 22:01:00,
2013-02-13 22:02:00,37.0,35.0,30.04,West,262,6.0,18.0,91,0.00,,,0.00,,2013-02-13 22:02:00,
2013-02-13 22:11:00,37.0,35.0,30.02,SW,231,5.0,16.0,92,0.01,,,0.01,,2013-02-13 22:11:00,
2013-02-13 22:21:00,37.0,35.0,30.02,SW,231,5.0,16.0,92,0.01,,,0.01,,2013-02-13 22:21:00,
2013-02-13 22:31:00,37.0,35.0,30.02,SW,231,5.0,16.0,92,0.01,,,0.01,,2013-02-13 22:31:00,
2013-02-13 22:42:00,37.0,35.0,30.02,SW,231,5.0,16.0,92,0.01,,,0.01,,2013-02-13 22:42:00,
2013-02-13 22:52:00,37.0,35.0,30.02,SW,231,5.0,16.0,92,0.01,,,0.01,,2013-02-13 22:52:00,
2013-02-13 23:11:00,38.0,36.0,29.99,WSW,252,8.0,15.0,93,0.00,,,0.01,,2013-02-13 23:11:00,
2013-02-13 23:32:00,38.0,36.0,29.99,WSW,252,8.0,15.0,93,0.00,,,0.01,,2013-02-13 23:32:00,
2013-02-13 23:42:00,38.0,36.0,29.99,WSW,252,8.0,15.0,93,0.00,,,0.01,,2013-02-13 23:42:00,
2013-02-13 23:52:00,38.0,36.0,29.99,WSW,252,8.0,15.0,93,0.00,,,0.01,,2013-02-13 23:52:00,